{"data":{"norad_id":55347,"epoch":"2026-09-19T19:08:37.397184Z","epoch_age_seconds":157300,"freshness":"FRESH","line1":"1 55347U 23013S   26262.79765506  .00000924  00000+0  43101-4 0  9993","line2":"2 55347  43.0052 286.8516 0001845 288.3013  71.7637 15.27580989201366","mean_motion":15.27580989,"eccentricity":0.0001845,"inclination_deg":43.0052,"raan_deg":286.8516,"arg_perigee_deg":288.3013,"mean_anomaly_deg":71.7637,"bstar":4.3101e-5,"rev_number":20136,"period_min":94.266687682639,"perigee_km":481.78024633112,"apogee_km":484.3120229078,"semimajor_km":6861.1831346195,"source":"CELESTRAK","updated_at":"2026-09-21T09:00:33.181823Z"}}